When you browse on this site, cookies collect data to enhance your experience and personalize the content and advertising you see.
Visit our Privacy Policy to learn more. By continuing to use the site, you agree to this use of cookies and data.

Stündliche Wetter Nam Dinh

Heute, 4 August, Dienstag

Zeit Temperatur Niederschläge Wind Luftdruck Luftfeuchtigkeit
00:00 +28°C° 0.8 mm 2 m/S 750 mmHg 92%
01:00 +28°C° 0 mm 2 m/S 750 mmHg 92%
02:00 +28°C° 0.5 mm 2 m/S 749 mmHg 93%
03:00 +28°C° 0.5 mm 2 m/S 749 mmHg 94%
04:00 +27°C° 0.5 mm 2 m/S 749 mmHg 95%
05:00 +28°C° 1.1 mm 2 m/S 749 mmHg 94%
06:00 +28°C° 1.1 mm 3 m/S 750 mmHg 94%
07:00 +28°C° 0 mm 1 m/S 750 mmHg 94%
08:00 +29°C° 0.3 mm 1 m/S 750 mmHg 92%
09:00 +29°C° 0.3 mm 1 m/S 750 mmHg 89%
10:00 +30°C° 0.3 mm 1 m/S 750 mmHg 87%
11:00 +30°C° 0.3 mm 1 m/S 750 mmHg 85%
12:00 +31°C° 0.3 mm 1 m/S 749 mmHg 83%
13:00 +29°C° 0 mm 1 m/S 750 mmHg 88%
14:00 +29°C° 0.1 mm 1 m/S 750 mmHg 89%
15:00 +29°C° 0.1 mm 2 m/S 749 mmHg 90%
16:00 +29°C° 0.1 mm 2 m/S 749 mmHg 90%
17:00 +28°C° 0 mm 1 m/S 749 mmHg 91%
18:00 +28°C° 0 mm 1 m/S 749 mmHg 91%
19:00 +28°C° 0 mm 1 m/S 749 mmHg 92%
20:00 +28°C° 0 mm 1 m/S 750 mmHg 92%
21:00 +28°C° 0 mm 1 m/S 751 mmHg 91%
22:00 +28°C° 0 mm 1 m/S 751 mmHg 91%
23:00 +28°C° 0.1 mm 1 m/S 751 mmHg 91%

Morgen, 5 August, Mittwoch

Zeit Temperatur Niederschläge Wind Luftdruck Luftfeuchtigkeit
00:00 +28°C° 0.1 mm 1 m/S 751 mmHg 92%
01:00 +28°C° 0.1 mm 1 m/S 751 mmHg 92%
02:00 +28°C° 0.5 mm 1 m/S 751 mmHg 92%
03:00 +27°C° 0.5 mm 1 m/S 750 mmHg 93%
04:00 +27°C° 0.5 mm 1 m/S 750 mmHg 93%
05:00 +28°C° 2.2 mm 2 m/S 751 mmHg 93%
06:00 +28°C° 2.2 mm 2 m/S 751 mmHg 93%
07:00 +28°C° 2.2 mm 2 m/S 751 mmHg 93%
08:00 +28°C° 1.6 mm 2 m/S 751 mmHg 92%
09:00 +29°C° 1.6 mm 2 m/S 752 mmHg 91%
10:00 +29°C° 1.6 mm 2 m/S 752 mmHg 90%
11:00 +30°C° 1.6 mm 3 m/S 751 mmHg 86%
12:00 +31°C° 1.6 mm 3 m/S 751 mmHg 82%
13:00 +33°C° 1.6 mm 3 m/S 751 mmHg 78%
14:00 +33°C° 0.8 mm 3 m/S 750 mmHg 78%
15:00 +33°C° 0.8 mm 3 m/S 750 mmHg 77%
16:00 +33°C° 0.8 mm 3 m/S 749 mmHg 77%
17:00 +31°C° 0 mm 3 m/S 750 mmHg 81%
18:00 +30°C° 0 mm 4 m/S 750 mmHg 84%
19:00 +29°C° 0 mm 4 m/S 750 mmHg 88%
20:00 +29°C° 0 mm 4 m/S 751 mmHg 89%
21:00 +29°C° 0 mm 4 m/S 752 mmHg 89%
22:00 +29°C° 0 mm 4 m/S 753 mmHg 90%
23:00 +29°C° 0.3 mm 4 m/S 753 mmHg 89%

übermorgen, 6 August, Donnerstag

Zeit Temperatur Niederschläge Wind Luftdruck Luftfeuchtigkeit
00:00 +29°C° 0.3 mm 4 m/S 752 mmHg 89%
01:00 +29°C° 0.3 mm 3 m/S 752 mmHg 89%
02:00 +29°C° 0.2 mm 3 m/S 752 mmHg 90%
03:00 +29°C° 0.2 mm 3 m/S 752 mmHg 91%
04:00 +28°C° 0.2 mm 3 m/S 751 mmHg 91%
05:00 +29°C° 0.7 mm 2 m/S 752 mmHg 91%
06:00 +29°C° 0.7 mm 2 m/S 752 mmHg 90%
07:00 +29°C° 0.7 mm 2 m/S 753 mmHg 90%
08:00 +30°C° 0.4 mm 3 m/S 753 mmHg 86%
09:00 +31°C° 0.4 mm 3 m/S 753 mmHg 81%
10:00 +33°C° 0.4 mm 3 m/S 753 mmHg 77%
11:00 +34°C° 0 mm 4 m/S 753 mmHg 74%
12:00 +34°C° 0 mm 4 m/S 752 mmHg 70%
13:00 +35°C° 0 mm 4 m/S 752 mmHg 67%
14:00 +35°C° 0 mm 5 m/S 751 mmHg 69%
15:00 +34°C° 0 mm 5 m/S 751 mmHg 71%
16:00 +34°C° 0 mm 5 m/S 751 mmHg 73%
17:00 +33°C° 0 mm 5 m/S 751 mmHg 76%
18:00 +32°C° 0 mm 4 m/S 752 mmHg 80%
19:00 +30°C° 0 mm 4 m/S 752 mmHg 84%
20:00 +30°C° 0.6 mm 4 m/S 753 mmHg 85%
21:00 +30°C° 0.6 mm 4 m/S 753 mmHg 85%
22:00 +30°C° 0.6 mm 5 m/S 754 mmHg 85%
23:00 +30°C° 0.8 mm 5 m/S 754 mmHg 86%

7 August, Freitag

Zeit Temperatur Niederschläge Wind Luftdruck Luftfeuchtigkeit
00:00 +30°C° 0.8 mm 5 m/S 753 mmHg 87%
01:00 +29°C° 0.8 mm 5 m/S 753 mmHg 88%
02:00 +29°C° 2.5 mm 5 m/S 753 mmHg 88%
03:00 +29°C° 2.5 mm 5 m/S 753 mmHg 88%
04:00 +29°C° 2.5 mm 5 m/S 752 mmHg 88%
05:00 +29°C° 3.2 mm 4 m/S 753 mmHg 89%
06:00 +29°C° 3.2 mm 3 m/S 753 mmHg 90%
07:00 +29°C° 3.2 mm 3 m/S 754 mmHg 92%
08:00 +29°C° 2 mm 2 m/S 754 mmHg 92%
09:00 +29°C° 2 mm 2 m/S 754 mmHg 91%
10:00 +29°C° 2 mm 2 m/S 754 mmHg 91%
11:00 +30°C° 0.4 mm 2 m/S 754 mmHg 88%
12:00 +31°C° 0.4 mm 3 m/S 753 mmHg 85%
13:00 +31°C° 0.4 mm 3 m/S 753 mmHg 82%
14:00 +33°C° 0.3 mm 4 m/S 752 mmHg 81%
15:00 +33°C° 0.3 mm 4 m/S 751 mmHg 80%
16:00 +33°C° 0.3 mm 5 m/S 751 mmHg 79%
17:00 +32°C° 0.3 mm 4 m/S 751 mmHg 82%
18:00 +32°C° 0.3 mm 4 m/S 751 mmHg 86%
19:00 +30°C° 0.3 mm 3 m/S 752 mmHg 89%
20:00 +29°C° 0 mm 3 m/S 752 mmHg 90%
21:00 +29°C° 0 mm 3 m/S 753 mmHg 90%
22:00 +29°C° 0 mm 3 m/S 754 mmHg 91%
23:00 +29°C° 0 mm 3 m/S 753 mmHg 91%

8 August, Samstag

Zeit Temperatur Niederschläge Wind Luftdruck Luftfeuchtigkeit
00:00 +29°C° 0 mm 3 m/S 753 mmHg 90%
01:00 +29°C° 0 mm 3 m/S 753 mmHg 90%
02:00 +29°C° 0 mm 2 m/S 752 mmHg 91%
03:00 +29°C° 0 mm 2 m/S 752 mmHg 91%
04:00 +28°C° 0 mm 2 m/S 752 mmHg 91%
05:00 +29°C° 0 mm 2 m/S 752 mmHg 90%
06:00 +29°C° 0 mm 2 m/S 752 mmHg 88%
07:00 +30°C° 0 mm 2 m/S 752 mmHg 87%
08:00 +31°C° 0.1 mm 2 m/S 753 mmHg 81%
09:00 +32°C° 0.1 mm 2 m/S 753 mmHg 75%
10:00 +35°C° 0.1 mm 3 m/S 753 mmHg 68%
11:00 +35°C° 0 mm 3 m/S 752 mmHg 67%
12:00 +35°C° 0 mm 4 m/S 751 mmHg 65%
13:00 +36°C° 0 mm 4 m/S 751 mmHg 63%
14:00 +35°C° 0 mm 4 m/S 750 mmHg 65%
15:00 +35°C° 0 mm 4 m/S 750 mmHg 67%
16:00 +34°C° 0 mm 5 m/S 749 mmHg 68%
17:00 +33°C° 0 mm 4 m/S 749 mmHg 73%
18:00 +32°C° 0 mm 4 m/S 750 mmHg 78%
19:00 +30°C° 0 mm 3 m/S 750 mmHg 83%
20:00 +30°C° 0 mm 3 m/S 751 mmHg 84%
21:00 +30°C° 0 mm 3 m/S 752 mmHg 85%
22:00 +29°C° 0 mm 3 m/S 752 mmHg 86%
23:00 +29°C° 0 mm 2 m/S 752 mmHg 86%

9 August, Sonntag

Zeit Temperatur Niederschläge Wind Luftdruck Luftfeuchtigkeit
00:00 +29°C° 0 mm 2 m/S 752 mmHg 86%
01:00 +29°C° 0 mm 2 m/S 751 mmHg 87%
02:00 +29°C° 0 mm 1 m/S 751 mmHg 87%
03:00 +29°C° 0 mm 1 m/S 751 mmHg 88%
04:00 +29°C° 0 mm 1 m/S 750 mmHg 88%
05:00 +29°C° 0 mm 1 m/S 751 mmHg 87%
06:00 +30°C° 0 mm 1 m/S 751 mmHg 85%
07:00 +30°C° 0 mm 1 m/S 751 mmHg 84%
08:00 +31°C° 0.1 mm 2 m/S 751 mmHg 78%
09:00 +34°C° 0.1 mm 2 m/S 751 mmHg 73%
10:00 +35°C° 0.1 mm 2 m/S 751 mmHg 68%
11:00 +35°C° 0 mm 3 m/S 751 mmHg 66%
12:00 +35°C° 0 mm 3 m/S 750 mmHg 65%
13:00 +36°C° 0 mm 4 m/S 750 mmHg 64%
14:00 +35°C° 0 mm 4 m/S 749 mmHg 66%
15:00 +35°C° 0 mm 4 m/S 749 mmHg 67%
16:00 +35°C° 0 mm 5 m/S 749 mmHg 69%
17:00 +34°C° 0 mm 4 m/S 749 mmHg 74%
18:00 +33°C° 0 mm 4 m/S 750 mmHg 79%
19:00 +30°C° 0 mm 3 m/S 750 mmHg 84%
20:00 +30°C° 0.1 mm 3 m/S 751 mmHg 86%
21:00 +30°C° 0.1 mm 2 m/S 751 mmHg 87%
22:00 +30°C° 0.1 mm 2 m/S 752 mmHg 88%
23:00 +30°C° 0.3 mm 2 m/S 751 mmHg 88%
Mehr zeigen